Date String (YYYY-MM-DD hh:mm:ss) UTC,Instrument flags,absolute air pressure of the measurement (hPa),sample flow rate (lpm),inlet stack bypass flow (lpm),air temperature of the measurement (°C),ambient temperature measured by the external sensor (°C),aerosol sample conditioner tube jacket temperature (°C),OPC LED temperature (°C),internal box temperature (°C),relative humidity of the measurement (%),span deviation,mass concentration of particles derived from Lorenz-Mie calculation of OPC scattering (μg/m³),mass concentration of particles derived from Lorenz-Mie calculation of OPC scattering (μg/m³),mass concentration of particles derived from Lorenz-Mie calculation of OPC scattering (μg/m³)
DateTimeUTC,F1_M11,P_M11,Q1_M11,Q2_M11,T1_M11,T2_M11,T3_M11,T4_M11,T5_M11,U1_M11,ZSPAN_M11,X0_M11,X2_M11,X1_M11
2023-11-29 23:00:00,SystemResetWarning,0821.8,5.00,000.00,025.2,024.3,000.0,033.5,026.6,8.1,0000.0,0007.78,0004.05,0003.52
2023-11-29 23:01:00,SystemResetWarning,0821.8,5.00,000.00,025.2,024.3,000.0,033.5,026.5,8.3,0000.0,0007.79,0004.09,0003.56
2023-11-29 23:02:00,SystemResetWarning,0821.7,5.01,000.00,025.2,024.2,000.0,033.5,026.5,8.3,0000.0,0007.55,0004.14,0003.60
2023-11-29 23:03:00,SystemResetWarning,0821.8,5.00,000.00,025.2,024.2,000.0,033.5,026.5,7.0,0000.0,0007.57,0004.22,0003.66
2023-11-29 23:04:00,SystemResetWarning,0821.8,4.99,000.00,025.2,024.2,000.0,033.5,026.5,6.7,0000.0,0007.77,0004.36,0003.78
2023-11-29 23:05:00,SystemResetWarning,0821.7,4.99,000.00,025.2,024.2,000.0,033.5,026.5,7.1,0000.0,0008.10,0004.57,0003.93
2023-11-29 23:06:00,SystemResetWarning,0821.7,4.99,000.00,025.2,024.2,000.0,033.5,026.5,6.6,0000.0,0008.46,0004.70,0004.07
2023-11-29 23:07:00,SystemResetWarning,0821.8,5.01,000.00,025.2,024.2,000.0,033.5,026.5,6.0,0000.0,0008.88,0004.91,0004.24
2023-11-29 23:08:00,SystemResetWarning,0821.7,5.01,000.00,025.2,024.1,000.0,033.5,026.5,5.5,0000.0,0009.41,0005.08,0004.40
2023-11-29 23:09:00,SystemResetWarning,0821.8,5.01,000.00,025.2,024.1,000.0,033.5,026.4,4.7,0000.0,0009.63,0005.14,0004.45
2023-11-29 23:10:00,SystemResetWarning,0821.8,5.00,000.00,025.2,024.1,000.0,033.5,026.3,5.6,0000.0,0010.01,0005.17,0004.49
2023-11-29 23:11:00,SystemResetWarning,0821.7,5.00,000.00,025.2,024.1,000.0,033.5,026.4,7.8,0000.0,0010.28,0005.20,0004.54
2023-11-29 23:12:00,SystemResetWarning,0821.7,5.00,000.00,025.2,024.1,000.0,033.5,026.4,8.2,0000.0,0010.55,0005.14,0004.53
2023-11-29 23:13:00,SystemResetWarning,0821.7,4.99,000.00,025.2,024.1,000.0,033.5,026.4,7.8,0000.0,0010.53,0005.06,0004.48
2023-11-29 23:14:00,SystemResetWarning,0821.8,5.00,000.00,025.1,024.1,000.0,033.5,026.4,7.6,0000.0,0010.37,0004.89,0004.34
2023-11-29 23:15:00,SystemResetWarning,0821.8,5.00,000.00,025.1,024.1,000.0,033.5,026.4,7.7,0000.0,0010.36,0004.59,0004.10
2023-11-29 23:16:00,SystemResetWarning,0821.7,5.00,000.00,025.1,024.1,000.0,033.5,026.4,7.7,0000.0,0010.28,0004.32,0003.89
2023-11-29 23:17:00,SystemResetWarning,0821.7,5.00,000.00,025.1,024.1,000.0,033.5,026.5,7.4,0000.0,0010.10,0004.32,0003.90
2023-11-29 23:18:00,SystemResetWarning,0821.8,5.00,000.00,025.1,024.1,000.0,033.5,026.5,6.7,0000.0,0010.05,0004.30,0003.88
2023-11-29 23:19:00,SystemResetWarning,0821.8,5.00,000.00,025.1,024.1,000.0,033.5,026.4,6.6,0000.0,0010.38,0004.25,0003.84
2023-11-29 23:20:00,SystemResetWarning,0821.7,4.99,000.00,025.1,024.1,000.0,033.5,026.4,6.6,0000.0,0011.09,0004.30,0003.88
2023-11-29 23:21:00,SystemResetWarning,0821.7,5.00,000.00,025.2,024.1,000.0,033.5,026.5,6.6,0000.0,0011.53,0004.38,0003.96
2023-11-29 23:22:00,SystemResetWarning,0821.8,5.01,000.00,025.2,024.2,000.0,033.5,026.5,7.1,0000.0,0011.46,0004.45,0004.03
2023-11-29 23:23:00,SystemResetWarning,0821.8,5.01,000.00,025.2,024.2,000.0,033.5,026.5,7.3,0000.0,0011.30,0004.60,0004.12
2023-11-29 23:24:00,SystemResetWarning,0821.7,4.99,000.00,025.2,024.2,000.0,033.5,026.5,7.4,0000.0,0011.38,0004.68,0004.18
2023-11-29 23:25:00,SystemResetWarning,0821.8,4.99,000.00,025.2,024.2,000.0,033.5,026.5,7.6,0000.0,0011.33,0004.76,0004.25
2023-11-29 23:26:00,SystemResetWarning,0821.7,5.00,000.00,025.2,024.2,000.0,033.5,026.5,7.2,0000.0,0011.23,0004.90,0004.40
2023-11-29 23:27:00,SystemResetWarning,0821.7,4.99,000.00,025.2,024.2,000.0,033.5,026.4,7.3,0000.0,0010.93,0005.03,0004.53
2023-11-29 23:28:00,SystemResetWarning,0821.8,5.00,000.00,025.2,024.2,000.0,033.5,026.5,6.3,0000.0,0011.43,0004.98,0004.49
2023-11-29 23:29:00,SystemResetWarning,0821.7,5.00,000.00,025.2,024.2,000.0,033.5,026.5,6.3,0000.0,0011.27,0004.91,0004.44
2023-11-29 23:30:00,SystemResetWarning,0821.8,5.01,000.00,025.2,024.2,000.0,033.5,026.5,6.4,0000.0,0010.53,0004.91,0004.44
2023-11-29 23:31:00,SystemResetWarning,0821.8,5.00,000.00,025.2,024.1,000.0,033.5,026.5,6.9,0000.0,0009.81,0004.94,0004.47
2023-11-29 23:32:00,SystemResetWarning,0821.7,4.99,000.00,025.2,024.1,000.0,033.5,026.5,7.2,0000.0,0009.23,0004.90,0004.45
2023-11-29 23:33:00,SystemResetWarning,0821.8,4.99,000.00,025.1,024.1,000.0,033.5,026.4,7.2,0000.0,0010.39,0004.88,0004.42
2023-11-29 23:34:00,SystemResetWarning,0821.8,5.00,000.00,025.1,024.1,000.0,033.5,026.4,7.5,0000.0,0010.18,0004.74,0004.31
2023-11-29 23:35:00,SystemResetWarning,0821.8,5.00,000.00,025.1,024.1,000.0,033.5,026.4,7.6,0000.0,0010.44,0004.70,0004.27
2023-11-29 23:36:00,SystemResetWarning,0821.8,5.00,000.00,025.1,024.1,000.0,033.5,026.5,7.7,0000.0,0010.55,0004.67,0004.25
2023-11-29 23:37:00,SystemResetWarning,0821.7,5.00,000.00,025.1,024.1,000.0,033.5,026.5,7.7,0000.0,0010.67,0004.74,0004.29
2023-11-29 23:38:00,SystemResetWarning,0821.8,5.00,000.00,025.1,024.1,000.0,033.5,026.4,7.6,0000.0,0010.82,0004.79,0004.34
2023-11-29 23:39:00,SystemResetWarning,0821.8,5.01,000.00,025.1,024.1,000.0,033.5,026.4,7.4,0000.0,0010.50,0004.78,0004.33
2023-11-29 23:40:00,SystemResetWarning,0821.8,5.01,000.00,025.1,024.1,000.0,033.4,026.4,7.5,0000.0,0010.34,0004.74,0004.30
2023-11-29 23:41:00,SystemResetWarning,0821.7,5.00,000.00,025.1,024.1,000.0,033.4,026.3,7.9,0000.0,0010.44,0004.75,0004.28
2023-11-29 23:42:00,SystemResetWarning,0821.8,5.00,000.00,025.1,024.1,000.0,033.4,026.4,8.1,0000.0,0010.32,0004.71,0004.26
2023-11-29 23:43:00,SystemResetWarning,0821.8,5.00,000.00,025.1,024.0,000.0,033.4,026.4,8.2,0000.0,0010.39,0004.72,0004.26
2023-11-29 23:44:00,SystemResetWarning,0821.7,5.00,000.00,025.1,024.0,000.0,033.4,026.4,8.1,0000.0,0009.06,0004.71,0004.24
2023-11-29 23:45:00,SystemResetWarning,0821.7,5.00,000.00,025.1,024.0,000.0,033.4,026.4,8.3,0000.0,0008.95,0004.74,0004.29
2023-11-29 23:46:00,SystemResetWarning,0821.7,5.00,000.00,025.0,024.0,000.0,033.4,026.4,8.4,0000.0,0008.72,0004.79,0004.34
2023-11-29 23:47:00,SystemResetWarning,0821.7,5.00,000.00,025.0,024.0,000.0,033.4,026.3,8.2,0000.0,0009.00,0004.92,0004.44
2023-11-29 23:48:00,SystemResetWarning,0821.7,4.99,000.00,025.0,024.0,000.0,033.4,026.3,8.1,0000.0,0009.25,0004.98,0004.51
2023-11-29 23:49:00,SystemResetWarning,0821.7,5.01,000.00,025.0,024.0,000.0,033.4,026.3,8.0,0000.0,0009.91,0005.08,0004.56
2023-11-29 23:50:00,SystemResetWarning,0821.7,5.00,000.00,025.0,024.0,000.0,033.4,026.3,8.0,0000.0,0009.96,0005.17,0004.63
2023-11-29 23:51:00,SystemResetWarning,0821.7,5.01,000.00,025.0,024.0,000.0,033.4,026.3,7.9,0000.0,0009.96,0005.21,0004.66
2023-11-29 23:52:00,SystemResetWarning,0821.7,4.99,000.00,025.0,024.0,000.0,033.4,026.3,7.9,0000.0,0010.03,0005.23,0004.66
2023-11-29 23:53:00,SystemResetWarning,0821.7,4.99,000.00,025.0,024.0,000.0,033.4,026.3,7.9,0000.0,0010.38,0005.20,0004.64
2023-11-29 23:54:00,SystemResetWarning,0821.7,5.00,000.00,025.0,024.0,000.0,033.4,026.2,7.9,0000.0,0010.87,0005.20,0004.63
2023-11-29 23:55:00,SystemResetWarning,0821.8,5.00,000.00,025.0,024.0,000.0,033.4,026.3,7.9,0000.0,0010.81,0005.21,0004.64
2023-11-29 23:56:00,SystemResetWarning,0821.7,5.01,000.00,025.0,024.0,000.0,033.4,026.3,7.8,0000.0,0010.88,0005.28,0004.70
2023-11-29 23:57:00,SystemResetWarning,0821.7,5.01,000.00,025.0,023.9,000.0,033.4,026.2,7.8,0000.0,0010.89,0005.31,0004.74
2023-11-29 23:58:00,SystemResetWarning,0821.7,5.00,000.00,025.0,023.9,000.0,033.4,026.2,7.9,0000.0,0010.67,0005.30,0004.75
2023-11-29 23:59:00,SystemResetWarning,0821.7,4.99,000.00,024.9,023.9,000.0,033.4,026.2,8.1,0000.0,0010.58,0005.31,0004.76
